STARLINK-36994, 67997

Orbit data source: Space-Track

STARLINK-36994, 67997 is a payload satellite owned by SpaceX/Seattle (US) in LEO that was launched on Fri, 27 Feb 2026 UTC via an FALCON 9 launch vehicle from the Air Force Eastern Test Range (AFETR). Payload-class satellites include a variety of spacecraft equipped with specific instruments for various scientific and technological missions. These include communications satellites like Starlink; space stations such as the ISS; scientific satellites like the Hubble; Earth observation satellites from companies like Planet Labs, Umbra, and HawkEye 360; GPS; miniature CubeSats for education and research; and military/defense satellites.

Loading next visibility...
Identifier
67997, 2026-039M
Orbit
LEO
Country
Flag of USUS
Related business
Manufacturer
SpaceX/Seattle
Mission
Operational Commercial Communications
Bus & Motor
STARLINK V2MO, Unknown motor
Mass
575 kg wet, ~530 kg dry
Launch date (UTC)
2026-02-27 (2 months ago)
Launch vehicle
FALCON 9
Launch site
Air Force Eastern Test Range (AFETR)
Object type
Payload
Rocket body
Debris
Shape & HBR
Box + 2 Pan, 17.7 m
Radar Cross Section
36.964 m²

Expand to show TLE details & history
Last TLE update: 15 hours ago

TLE from 15 hours ago
0 STARLINK-36994
1 67997U 26039M   26111.82005726  .00013992  00000-0  51733-3 0  9995
2 67997  43.0002 165.0071 0001678 268.4920  91.5740 15.27559748  8302
Epoch: 2026-04-21T19:40Z
TLE epoch observation values (Epoch: 2026-04-21T19:40:52.947Z)
Latitude
0.00003°
Longitude
19.89616°
Altitude
482.917 km
Speed
7.626 km/s
True Right ascension
11h 00m 01s
True Declination
0° 00' 00"
Sunlit
Object was in full shadow at epoch
Visualization orbit readout
Latitude
Unknown
Longitude
Unknown
Altitude
Unknown
Speed
Unknown
Apparent Right ascension
Unknown
Apparent Declination
Unknown
Sunlit
N/A
Visualization observer readout
Local Sidereal Time
18:07:04
Azimuth
Unknown
Elevation
Unknown
Doppler factor
Unknown
Orbital elements
Apogee altitude
486.207 km
Perigee altitude
483.903 km
Semi-major axis
6,863.192 km
Eccentricity
0.00017
Inclination
43.0002°
RAAN
165.0071°
Arg. of periapsis
268.492°
True anomaly
91.59322°
Mean anomaly
91.574°
Eccentric anomaly
91.58361°
Mean motion
3.81728 °/min
Orbital period
94.31 mins
BSTAR
0.00051733
Loading maneuver chart data...
Computing Atmospheric mass density...
Loading historical data...
Loading historical data...
Loading historical data...
Loading historical data...
Loading historical data...
Loading historical data...
Loading historical data...

Documentation

Showing up to 5 results
|